contact:dominique.lefevre@mio.osupytheas.fr, maurice.libes@osupytheas.fr, didier.mallarino@osupytheas.fr
Project:EMSO http://www.emso-fr.org/EMSO-France
Depth: 2436.0 m
Title:EMSO Ligure Ouest : Data MII capteur MICROCAT
DateTime_Computer,Latitude,Longitude,Temperature,Conductivity,Pressure,DateTime_Instrument
DateTime_Computer,Latitude,Longitude,degC,S m-1,dbar,DateTime_Instrument
2017-11-01T00:01:18Z,42.805,6.029,13.2955,4.59978,2472.002,2017-11-01T02:02:44Z
2017-11-01T00:02:52Z,42.805,6.029,13.2963,4.59975,2472.002,2017-11-01T02:04:18Z
2017-11-01T00:04:27Z,42.805,6.029,13.2957,4.60008,2471.979,2017-11-01T02:05:53Z
2017-11-01T00:06:02Z,42.805,6.029,13.2960,4.60000,2472.024,2017-11-01T02:07:28Z
2017-11-01T00:07:37Z,42.805,6.029,13.2957,4.59979,2471.987,2017-11-01T02:09:03Z
2017-11-01T00:09:12Z,42.805,6.029,13.2964,4.59990,2472.002,2017-11-01T02:10:38Z
2017-11-01T00:10:46Z,42.805,6.029,13.2950,4.59984,2472.016,2017-11-01T02:12:13Z
2017-11-01T00:12:21Z,42.805,6.029,13.2960,4.59990,2471.957,2017-11-01T02:13:47Z
2017-11-01T00:13:56Z,42.805,6.029,13.2950,4.59984,2471.979,2017-11-01T02:15:22Z
2017-11-01T00:15:31Z,42.805,6.029,13.2954,4.59981,2472.024,2017-11-01T02:16:57Z
2017-11-01T00:17:06Z,42.805,6.029,13.2955,4.59980,2472.002,2017-11-01T02:18:32Z
2017-11-01T00:18:41Z,42.805,6.029,13.2963,4.59976,2472.002,2017-11-01T02:20:07Z
2017-11-01T00:20:15Z,42.805,6.029,13.2960,4.59988,2472.01,2017-11-01T02:21:42Z
2017-11-01T00:21:50Z,42.805,6.029,13.2957,4.59981,2471.987,2017-11-01T02:23:16Z
2017-11-01T00:23:25Z,42.805,6.029,13.2958,4.59970,2472.002,2017-11-01T02:24:51Z
2017-11-01T00:25:00Z,42.805,6.029,13.2957,4.59975,2472.002,2017-11-01T02:26:26Z
2017-11-01T00:26:35Z,42.805,6.029,13.2950,4.59985,2472.002,2017-11-01T02:28:01Z
2017-11-01T00:28:10Z,42.805,6.029,13.2964,4.59978,2472.002,2017-11-01T02:29:36Z
2017-11-01T00:29:44Z,42.805,6.029,13.2958,4.59988,2472.002,2017-11-01T02:31:11Z
2017-11-01T00:31:19Z,42.805,6.029,13.2951,4.59977,2472.002,2017-11-01T02:32:45Z
2017-11-01T00:32:54Z,42.805,6.029,13.2958,4.59973,2472.024,2017-11-01T02:34:20Z
2017-11-01T00:34:29Z,42.805,6.029,13.2975,4.59972,2472.002,2017-11-01T02:35:55Z
2017-11-01T00:36:04Z,42.805,6.029,13.2954,4.59968,2472.002,2017-11-01T02:37:30Z
2017-11-01T00:37:39Z,42.805,6.029,13.2945,4.59989,2471.979,2017-11-01T02:39:05Z
2017-11-01T00:39:13Z,42.805,6.029,13.2954,4.59980,2472.024,2017-11-01T02:40:40Z
2017-11-01T00:40:48Z,42.805,6.029,13.2963,4.59998,2472.002,2017-11-01T02:42:14Z
2017-11-01T00:42:23Z,42.805,6.029,13.2959,4.59977,2472.047,2017-11-01T02:43:49Z
2017-11-01T00:43:58Z,42.805,6.029,13.2951,4.59987,2472.002,2017-11-01T02:45:24Z
2017-11-01T00:45:33Z,42.805,6.029,13.2962,4.59987,2472.002,2017-11-01T02:46:59Z
2017-11-01T00:47:08Z,42.805,6.029,13.2965,4.59986,2472.002,2017-11-01T02:48:34Z
2017-11-01T00:48:42Z,42.805,6.029,13.2963,4.59982,2471.979,2017-11-01T02:50:09Z
2017-11-01T00:50:17Z,42.805,6.029,13.2963,4.59987,2472.024,2017-11-01T02:51:43Z
2017-11-01T00:51:52Z,42.805,6.029,13.2965,4.59989,2472.002,2017-11-01T02:53:18Z
2017-11-01T00:53:27Z,42.805,6.029,13.2953,4.59987,2471.987,2017-11-01T02:54:53Z
2017-11-01T00:55:02Z,42.805,6.029,13.2948,4.59978,2471.987,2017-11-01T02:56:28Z
2017-11-01T00:56:37Z,42.805,6.029,13.2958,4.59970,2472.039,2017-11-01T02:58:03Z
2017-11-01T00:58:11Z,42.805,6.029,13.2952,4.59987,2472.024,2017-11-01T02:59:38Z
2017-11-01T00:59:46Z,42.805,6.029,13.2949,4.59985,2471.964,2017-11-01T03:01:12Z
2017-11-01T01:01:21Z,42.805,6.029,13.2951,4.59984,2472.024,2017-11-01T03:02:47Z
2017-11-01T01:02:56Z,42.805,6.029,13.2964,4.59978,2472.047,2017-11-01T03:04:22Z
2017-11-01T01:04:31Z,42.805,6.029,13.2957,4.59991,2471.987,2017-11-01T03:05:57Z
2017-11-01T01:06:06Z,42.805,6.029,13.2966,4.59976,2472.002,2017-11-01T03:07:32Z
2017-11-01T01:07:40Z,42.805,6.029,13.2950,4.59983,2472.047,2017-11-01T03:09:07Z
2017-11-01T01:09:15Z,42.805,6.029,13.2952,4.59970,2472.047,2017-11-01T03:10:41Z
2017-11-01T01:10:50Z,42.805,6.029,13.2955,4.59970,2472.024,2017-11-01T03:12:16Z
2017-11-01T01:12:25Z,42.805,6.029,13.2958,4.59970,2472.024,2017-11-01T03:13:51Z
2017-11-01T01:14:00Z,42.805,6.029,13.2958,4.59973,2472.024,2017-11-01T03:15:26Z
2017-11-01T01:15:35Z,42.805,6.029,13.2954,4.59970,2472.047,2017-11-01T03:17:01Z
2017-11-01T01:17:09Z,42.805,6.029,13.2951,4.59989,2472.032,2017-11-01T03:18:35Z
2017-11-01T01:18:44Z,42.805,6.029,13.2951,4.59974,2472.047,2017-11-01T03:20:10Z
2017-11-01T01:20:19Z,42.805,6.029,13.2950,4.59981,2472.024,2017-11-01T03:21:45Z
2017-11-01T01:21:54Z,42.805,6.029,13.2946,4.59984,2472.047,2017-11-01T03:23:20Z
2017-11-01T01:23:29Z,42.805,6.029,13.2961,4.59977,2472.047,2017-11-01T03:24:55Z
2017-11-01T01:25:04Z,42.805,6.029,13.2955,4.59981,2472.032,2017-11-01T03:26:30Z
2017-11-01T01:26:38Z,42.805,6.029,13.2965,4.59967,2472.024,2017-11-01T03:28:04Z
2017-11-01T01:28:13Z,42.805,6.029,13.2964,4.59968,2472.047,2017-11-01T03:29:39Z
2017-11-01T01:29:48Z,42.805,6.029,13.2986,4.59970,2472.055,2017-11-01T03:31:14Z
2017-11-01T01:31:23Z,42.805,6.029,13.2948,4.59983,2472.047,2017-11-01T03:32:49Z
2017-11-01T01:32:58Z,42.805,6.029,13.2953,4.59971,2472.055,2017-11-01T03:34:24Z
2017-11-01T01:34:33Z,42.805,6.029,13.2957,4.59975,2472.002,2017-11-01T03:35:59Z
2017-11-01T01:36:07Z,42.805,6.029,13.2951,4.59976,2472.024,2017-11-01T03:37:33Z
2017-11-01T01:37:42Z,42.805,6.029,13.2953,4.59978,2472.069,2017-11-01T03:39:08Z
2017-11-01T01:39:17Z,42.805,6.029,13.2953,4.59980,2472.024,2017-11-01T03:40:43Z
2017-11-01T01:40:52Z,42.805,6.029,13.2957,4.59975,2472.032,2017-11-01T03:42:18Z
2017-11-01T01:42:27Z,42.805,6.029,13.2953,4.59979,2472.047,2017-11-01T03:43:53Z
2017-11-01T01:44:02Z,42.805,6.029,13.2968,4.59980,2471.987,2017-11-01T03:45:28Z
2017-11-01T01:45:36Z,42.805,6.029,13.2959,4.59981,2472.032,2017-11-01T03:47:02Z
2017-11-01T01:47:11Z,42.805,6.029,13.2960,4.59976,2472.077,2017-11-01T03:48:37Z
2017-11-01T01:48:46Z,42.805,6.029,13.2962,4.59980,2472.047,2017-11-01T03:50:12Z
2017-11-01T01:50:21Z,42.805,6.029,13.2965,4.59981,2472.047,2017-11-01T03:51:47Z
2017-11-01T01:51:56Z,42.805,6.029,13.2953,4.59973,2472.032,2017-11-01T03:53:22Z
2017-11-01T01:53:31Z,42.805,6.029,13.2966,4.59980,2472.047,2017-11-01T03:54:57Z
2017-11-01T01:55:05Z,42.805,6.029,13.2950,4.59970,2472.01,2017-11-01T03:56:31Z
2017-11-01T01:56:40Z,42.805,6.029,13.2953,4.59974,2472.047,2017-11-01T03:58:06Z
2017-11-01T01:58:15Z,42.805,6.029,13.2957,4.59971,2472.047,2017-11-01T03:59:41Z
2017-11-01T01:59:50Z,42.805,6.029,13.2957,4.59975,2472.069,2017-11-01T04:01:16Z
2017-11-01T02:01:25Z,42.805,6.029,13.2955,4.59968,2472.047,2017-11-01T04:02:51Z
2017-11-01T02:03:00Z,42.805,6.029,13.2963,4.59981,2472.032,2017-11-01T04:04:26Z
2017-11-01T02:04:34Z,42.805,6.029,13.2956,4.59984,2472.047,2017-11-01T04:06:00Z
2017-11-01T02:06:09Z,42.805,6.029,13.2956,4.59979,2472.024,2017-11-01T04:07:35Z
2017-11-01T02:07:44Z,42.805,6.029,13.2948,4.59977,2472.069,2017-11-01T04:09:10Z
2017-11-01T02:09:19Z,42.805,6.029,13.2958,4.59987,2472.047,2017-11-01T04:10:45Z
2017-11-01T02:10:54Z,42.805,6.029,13.2965,4.59972,2472.069,2017-11-01T04:12:20Z
2017-11-01T02:12:28Z,42.805,6.029,13.2959,4.59973,2472.069,2017-11-01T04:13:55Z
2017-11-01T02:14:03Z,42.805,6.029,13.2957,4.59978,2472.069,2017-11-01T04:15:29Z
2017-11-01T02:15:38Z,42.805,6.029,13.2949,4.59977,2472.047,2017-11-01T04:17:04Z
2017-11-01T02:17:13Z,42.805,6.029,13.2957,4.59987,2472.055,2017-11-01T04:18:39Z
2017-11-01T02:18:48Z,42.805,6.029,13.2951,4.59973,2472.069,2017-11-01T04:20:14Z
2017-11-01T02:20:23Z,42.805,6.029,13.2963,4.59975,2472.055,2017-11-01T04:21:49Z
2017-11-01T02:21:57Z,42.805,6.029,13.2956,4.59977,2472.055,2017-11-01T04:23:24Z
2017-11-01T02:23:32Z,42.805,6.029,13.2958,4.59979,2472.069,2017-11-01T04:24:58Z
2017-11-01T02:25:07Z,42.805,6.029,13.2961,4.59979,2472.047,2017-11-01T04:26:33Z
2017-11-01T02:26:42Z,42.805,6.029,13.2960,4.59982,2472.092,2017-11-01T04:28:08Z
2017-11-01T02:28:17Z,42.805,6.029,13.2958,4.59980,2472.069,2017-11-01T04:29:43Z
2017-11-01T02:29:52Z,42.805,6.029,13.2957,4.59975,2472.069,2017-11-01T04:31:18Z
2017-11-01T02:31:26Z,42.805,6.029,13.2967,4.59973,2472.092,2017-11-01T04:32:53Z
2017-11-01T02:33:01Z,42.805,6.029,13.2960,4.59982,2472.115,2017-11-01T04:34:27Z
2017-11-01T02:34:36Z,42.805,6.029,13.2963,4.59979,2472.077,2017-11-01T04:36:02Z
2017-11-01T02:36:11Z,42.805,6.029,13.2968,4.59975,2472.069,2017-11-01T04:37:37Z
2017-11-01T02:37:46Z,42.805,6.029,13.2957,4.59974,2472.092,2017-11-01T04:39:12Z
2017-11-01T02:39:21Z,42.805,6.029,13.2968,4.59981,2472.069,2017-11-01T04:40:47Z
2017-11-01T02:40:55Z,42.805,6.029,13.2961,4.59977,2472.055,2017-11-01T04:42:22Z
2017-11-01T02:42:30Z,42.805,6.029,13.2958,4.59977,2472.055,2017-11-01T04:43:56Z
2017-11-01T02:44:05Z,42.805,6.029,13.2966,4.59972,2472.069,2017-11-01T04:45:31Z
2017-11-01T02:45:40Z,42.805,6.029,13.2962,4.59980,2472.092,2017-11-01T04:47:06Z
2017-11-01T02:47:15Z,42.805,6.029,13.2958,4.59971,2472.092,2017-11-01T04:48:41Z
2017-11-01T02:48:50Z,42.805,6.029,13.2957,4.59977,2472.115,2017-11-01T04:50:16Z
2017-11-01T02:50:24Z,42.805,6.029,13.2960,4.59973,2472.055,2017-11-01T04:51:51Z
2017-11-01T02:51:59Z,42.805,6.029,13.2957,4.59972,2472.1,2017-11-01T04:53:25Z
2017-11-01T02:53:34Z,42.805,6.029,13.2957,4.59972,2472.092,2017-11-01T04:55:00Z
2017-11-01T02:55:09Z,42.805,6.029,13.2958,4.59975,2472.092,2017-11-01T04:56:35Z
2017-11-01T02:56:44Z,42.805,6.029,13.2958,4.59975,2472.115,2017-11-01T04:58:10Z
2017-11-01T02:58:19Z,42.805,6.029,13.2957,4.59973,2472.092,2017-11-01T04:59:45Z
2017-11-01T02:59:53Z,42.805,6.029,13.2955,4.59978,2472.069,2017-11-01T05:01:20Z
2017-11-01T03:01:28Z,42.805,6.029,13.2964,4.59978,2472.092,2017-11-01T05:02:54Z
2017-11-01T03:03:03Z,42.805,6.029,13.2957,4.59970,2472.092,2017-11-01T05:04:29Z
2017-11-01T03:04:38Z,42.805,6.029,13.2961,4.59974,2472.115,2017-11-01T05:06:04Z
2017-11-01T03:06:13Z,42.805,6.029,13.2958,4.59980,2472.115,2017-11-01T05:07:39Z
2017-11-01T03:07:48Z,42.805,6.029,13.2962,4.59974,2472.115,2017-11-01T05:09:14Z
2017-11-01T03:09:22Z,42.805,6.029,13.2957,4.59974,2472.092,2017-11-01T05:10:49Z
2017-11-01T03:10:57Z,42.805,6.029,13.2954,4.59975,2472.092,2017-11-01T05:12:23Z
2017-11-01T03:12:32Z,42.805,6.029,13.2960,4.59972,2472.1,2017-11-01T05:13:58Z
2017-11-01T03:14:07Z,42.805,6.029,13.2958,4.59974,2472.092,2017-11-01T05:15:33Z
2017-11-01T03:15:42Z,42.805,6.029,13.2965,4.59973,2472.1,2017-11-01T05:17:08Z
2017-11-01T03:17:17Z,42.805,6.029,13.2957,4.59972,2472.069,2017-11-01T05:18:43Z
2017-11-01T03:18:51Z,42.805,6.029,13.2954,4.59980,2472.1,2017-11-01T05:20:18Z
2017-11-01T03:20:26Z,42.805,6.029,13.2964,4.59969,2472.137,2017-11-01T05:21:52Z
2017-11-01T03:22:01Z,42.805,6.029,13.2962,4.59971,2472.1,2017-11-01T05:23:27Z
2017-11-01T03:23:36Z,42.805,6.029,13.2954,4.59978,2472.115,2017-11-01T05:25:02Z
2017-11-01T03:25:11Z,42.805,6.029,13.2958,4.59971,2472.115,2017-11-01T05:26:37Z
2017-11-01T03:26:46Z,42.805,6.029,13.2961,4.59972,2472.1,2017-11-01T05:28:12Z
2017-11-01T03:28:20Z,42.805,6.029,13.2951,4.59970,2472.092,2017-11-01T05:29:46Z
2017-11-01T03:29:55Z,42.805,6.029,13.2964,4.59980,2472.115,2017-11-01T05:31:21Z
2017-11-01T03:31:30Z,42.805,6.029,13.2968,4.59977,2472.115,2017-11-01T05:32:56Z
2017-11-01T03:33:05Z,42.805,6.029,13.2961,4.59977,2472.137,2017-11-01T05:34:31Z
2017-11-01T03:34:40Z,42.805,6.029,13.2970,4.59976,2472.1,2017-11-01T05:36:06Z
2017-11-01T03:36:15Z,42.805,6.029,13.2962,4.59976,2472.092,2017-11-01T05:37:41Z
2017-11-01T03:37:49Z,42.805,6.029,13.2964,4.59975,2472.092,2017-11-01T05:39:15Z
2017-11-01T03:39:24Z,42.805,6.029,13.2960,4.59975,2472.137,2017-11-01T05:40:50Z
2017-11-01T03:40:59Z,42.805,6.029,13.2964,4.59980,2472.137,2017-11-01T05:42:25Z
2017-11-01T03:42:34Z,42.805,6.029,13.2961,4.59977,2472.115,2017-11-01T05:44:00Z
2017-11-01T03:44:09Z,42.805,6.029,13.2964,4.59977,2472.123,2017-11-01T05:45:35Z
2017-11-01T03:45:44Z,42.805,6.029,13.2969,4.59972,2472.137,2017-11-01T05:47:10Z
2017-11-01T03:47:18Z,42.805,6.029,13.2968,4.59974,2472.123,2017-11-01T05:48:44Z
2017-11-01T03:48:53Z,42.805,6.029,13.2958,4.59975,2472.107,2017-11-01T05:50:19Z
2017-11-01T03:50:28Z,42.805,6.029,13.2965,4.59969,2472.115,2017-11-01T05:51:54Z
2017-11-01T03:52:03Z,42.805,6.029,13.2968,4.59975,2472.1,2017-11-01T05:53:29Z
2017-11-01T03:53:38Z,42.805,6.029,13.2957,4.59978,2472.115,2017-11-01T05:55:04Z
2017-11-01T03:55:13Z,42.805,6.029,13.2956,4.59979,2472.115,2017-11-01T05:56:39Z
2017-11-01T03:56:47Z,42.805,6.029,13.2968,4.59976,2472.092,2017-11-01T05:58:13Z
2017-11-01T03:58:22Z,42.805,6.029,13.2963,4.59978,2472.1,2017-11-01T05:59:48Z
2017-11-01T03:59:57Z,42.805,6.029,13.2961,4.59978,2472.115,2017-11-01T06:01:23Z
2017-11-01T04:01:32Z,42.805,6.029,13.2960,4.59975,2472.115,2017-11-01T06:02:58Z
2017-11-01T04:03:07Z,42.805,6.029,13.2958,4.59977,2472.1,2017-11-01T06:04:33Z
2017-11-01T04:04:42Z,42.805,6.029,13.2958,4.59983,2472.1,2017-11-01T06:06:08Z
2017-11-01T04:06:16Z,42.805,6.029,13.2961,4.59976,2472.137,2017-11-01T06:07:42Z
2017-11-01T04:07:51Z,42.805,6.029,13.2958,4.59973,2472.115,2017-11-01T06:09:17Z
2017-11-01T04:09:26Z,42.805,6.029,13.2959,4.59975,2472.115,2017-11-01T06:10:52Z
2017-11-01T04:11:01Z,42.805,6.029,13.2960,4.59973,2472.137,2017-11-01T06:12:27Z
2017-11-01T04:12:36Z,42.805,6.029,13.2964,4.59974,2472.137,2017-11-01T06:14:02Z
2017-11-01T04:14:10Z,42.805,6.029,13.2960,4.59973,2472.137,2017-11-01T06:15:37Z
2017-11-01T04:15:45Z,42.805,6.029,13.2976,4.59972,2472.137,2017-11-01T06:17:11Z
2017-11-01T04:17:20Z,42.805,6.029,13.2958,4.59975,2472.152,2017-11-01T06:18:46Z
2017-11-01T04:18:55Z,42.805,6.029,13.2964,4.59974,2472.1,2017-11-01T06:20:21Z
2017-11-01T04:20:30Z,42.805,6.029,13.2977,4.59973,2472.137,2017-11-01T06:21:56Z
2017-11-01T04:22:05Z,42.805,6.029,13.2957,4.59973,2472.123,2017-11-01T06:23:31Z
2017-11-01T04:23:39Z,42.805,6.029,13.2957,4.59973,2472.123,2017-11-01T06:25:06Z
2017-11-01T04:25:14Z,42.805,6.029,13.2957,4.59975,2472.137,2017-11-01T06:26:40Z
2017-11-01T04:26:49Z,42.805,6.029,13.2957,4.59973,2472.137,2017-11-01T06:28:15Z
2017-11-01T04:28:24Z,42.805,6.029,13.2957,4.59979,2472.123,2017-11-01T06:29:50Z
2017-11-01T04:29:59Z,42.805,6.029,13.2963,4.59984,2472.137,2017-11-01T06:31:25Z
2017-11-01T04:31:34Z,42.805,6.029,13.2963,4.59983,2472.137,2017-11-01T06:33:00Z
2017-11-01T04:33:08Z,42.805,6.029,13.2969,4.59984,2472.115,2017-11-01T06:34:35Z
2017-11-01T04:34:43Z,42.805,6.029,13.2959,4.59982,2472.115,2017-11-01T06:36:09Z
2017-11-01T04:36:18Z,42.805,6.029,13.2961,4.59982,2472.137,2017-11-01T06:37:44Z
2017-11-01T04:37:53Z,42.805,6.029,13.2958,4.59982,2472.123,2017-11-01T06:39:19Z
2017-11-01T04:39:28Z,42.805,6.029,13.2964,4.59977,2472.137,2017-11-01T06:40:54Z
2017-11-01T04:41:03Z,42.805,6.029,13.2958,4.59982,2472.123,2017-11-01T06:42:29Z
2017-11-01T04:42:37Z,42.805,6.029,13.2959,4.59993,2472.16,2017-11-01T06:44:04Z
2017-11-01T04:44:12Z,42.805,6.029,13.2961,4.59974,2472.115,2017-11-01T06:45:38Z
2017-11-01T04:45:47Z,42.805,6.029,13.2968,4.59976,2472.16,2017-11-01T06:47:13Z
2017-11-01T04:47:22Z,42.805,6.029,13.2977,4.59971,2472.115,2017-11-01T06:48:48Z
2017-11-01T04:48:57Z,42.805,6.029,13.2956,4.59973,2472.137,2017-11-01T06:50:23Z
2017-11-01T04:50:32Z,42.805,6.029,13.2955,4.59973,2472.16,2017-11-01T06:51:58Z
2017-11-01T04:52:06Z,42.805,6.029,13.2958,4.59973,2472.145,2017-11-01T06:53:33Z
2017-11-01T04:53:41Z,42.805,6.029,13.2960,4.59972,2472.16,2017-11-01T06:55:07Z
2017-11-01T04:55:16Z,42.805,6.029,13.2960,4.59978,2472.137,2017-11-01T06:56:42Z
2017-11-01T04:56:51Z,42.805,6.029,13.2975,4.59974,2472.129,2017-11-01T06:58:17Z
2017-11-01T04:58:26Z,42.805,6.029,13.2959,4.59975,2472.137,2017-11-01T06:59:52Z
2017-11-01T05:00:01Z,42.805,6.029,13.2966,4.59978,2472.123,2017-11-01T07:01:27Z
2017-11-01T05:01:35Z,42.805,6.029,13.2961,4.59978,2472.115,2017-11-01T07:03:02Z
2017-11-01T05:03:10Z,42.805,6.029,13.2962,4.59985,2472.137,2017-11-01T07:04:36Z
2017-11-01T05:04:45Z,42.805,6.029,13.2957,4.59979,2472.1,2017-11-01T07:06:11Z
2017-11-01T05:06:20Z,42.805,6.029,13.2963,4.59975,2472.16,2017-11-01T07:07:46Z
2017-11-01T05:07:55Z,42.805,6.029,13.2959,4.59974,2472.16,2017-11-01T07:09:21Z
2017-11-01T05:09:30Z,42.805,6.029,13.2962,4.59972,2472.123,2017-11-01T07:10:56Z
2017-11-01T05:11:04Z,42.805,6.029,13.2966,4.59973,2472.16,2017-11-01T07:12:31Z
2017-11-01T05:12:39Z,42.805,6.029,13.2964,4.59972,2472.123,2017-11-01T07:14:05Z
2017-11-01T05:14:14Z,42.805,6.029,13.2955,4.59973,2472.137,2017-11-01T07:15:40Z
2017-11-01T05:15:49Z,42.805,6.029,13.2961,4.59976,2472.137,2017-11-01T07:17:15Z
2017-11-01T05:17:24Z,42.805,6.029,13.2960,4.59981,2472.1,2017-11-01T07:18:50Z
2017-11-01T05:18:59Z,42.805,6.029,13.2959,4.59977,2472.115,2017-11-01T07:20:25Z
2017-11-01T05:20:33Z,42.805,6.029,13.2962,4.59972,2472.1,2017-11-01T07:21:59Z
2017-11-01T05:22:08Z,42.805,6.029,13.2957,4.59973,2472.137,2017-11-01T07:23:34Z
2017-11-01T05:23:43Z,42.805,6.029,13.2952,4.59979,2472.137,2017-11-01T07:25:09Z
2017-11-01T05:25:18Z,42.805,6.029,13.2959,4.59980,2472.123,2017-11-01T07:26:44Z
2017-11-01T05:26:53Z,42.805,6.029,13.2954,4.59975,2472.137,2017-11-01T07:28:19Z
2017-11-01T05:28:28Z,42.805,6.029,13.2975,4.59981,2472.145,2017-11-01T07:29:54Z
2017-11-01T05:30:02Z,42.805,6.029,13.2977,4.59981,2472.115,2017-11-01T07:31:29Z
2017-11-01T05:31:37Z,42.805,6.029,13.2960,4.59973,2472.137,2017-11-01T07:33:03Z
2017-11-01T05:33:12Z,42.805,6.029,13.2956,4.59975,2472.137,2017-11-01T07:34:38Z
2017-11-01T05:34:47Z,42.805,6.029,13.2958,4.59975,2472.123,2017-11-01T07:36:13Z
2017-11-01T05:36:22Z,42.805,6.029,13.2954,4.59972,2472.145,2017-11-01T07:37:48Z
2017-11-01T05:37:57Z,42.805,6.029,13.2960,4.59977,2472.137,2017-11-01T07:39:23Z
2017-11-01T05:39:31Z,42.805,6.029,13.2959,4.59981,2472.145,2017-11-01T07:40:57Z
2017-11-01T05:41:06Z,42.805,6.029,13.2966,4.59974,2472.115,2017-11-01T07:42:32Z
2017-11-01T05:42:41Z,42.805,6.029,13.2957,4.59976,2472.123,2017-11-01T07:44:07Z
2017-11-01T05:44:16Z,42.805,6.029,13.2958,4.59971,2472.137,2017-11-01T07:45:42Z
2017-11-01T05:45:51Z,42.805,6.029,13.2958,4.59972,2472.137,2017-11-01T07:47:17Z
2017-11-01T05:47:26Z,42.805,6.029,13.2968,4.59977,2472.123,2017-11-01T07:48:52Z
2017-11-01T05:49:00Z,42.805,6.029,13.2966,4.59973,2472.115,2017-11-01T07:50:26Z
2017-11-01T05:50:35Z,42.805,6.029,13.2967,4.59979,2472.137,2017-11-01T07:52:01Z
2017-11-01T05:52:10Z,42.805,6.029,13.2965,4.59978,2472.123,2017-11-01T07:53:36Z
2017-11-01T05:53:45Z,42.805,6.029,13.2954,4.59978,2472.137,2017-11-01T07:55:11Z
2017-11-01T05:55:20Z,42.805,6.029,13.2959,4.59981,2472.137,2017-11-01T07:56:46Z
2017-11-01T05:56:55Z,42.805,6.029,13.2973,4.59975,2472.137,2017-11-01T07:58:21Z
2017-11-01T05:58:29Z,42.805,6.029,13.2965,4.59985,2472.137,2017-11-01T07:59:55Z
2017-11-01T06:00:04Z,42.805,6.029,13.2959,4.59983,2472.16,2017-11-01T08:01:30Z
2017-11-01T06:01:39Z,42.805,6.029,13.2961,4.59980,2472.137,2017-11-01T08:03:05Z
2017-11-01T06:03:14Z,42.805,6.029,13.2954,4.59983,2472.137,2017-11-01T08:04:40Z
2017-11-01T06:04:49Z,42.805,6.029,13.2961,4.59990,2472.137,2017-11-01T08:06:15Z
2017-11-01T06:06:24Z,42.805,6.029,13.2957,4.59984,2472.16,2017-11-01T08:07:50Z
2017-11-01T06:07:58Z,42.805,6.029,13.2963,4.59976,2472.16,2017-11-01T08:09:24Z
2017-11-01T06:09:33Z,42.805,6.029,13.2963,4.59986,2472.137,2017-11-01T08:10:59Z
2017-11-01T06:11:08Z,42.805,6.029,13.2976,4.59978,2472.152,2017-11-01T08:12:34Z
2017-11-01T06:12:43Z,42.805,6.029,13.2966,4.59981,2472.16,2017-11-01T08:14:09Z
2017-11-01T06:14:18Z,42.805,6.029,13.2979,4.59975,2472.137,2017-11-01T08:15:44Z
2017-11-01T06:15:53Z,42.805,6.029,13.2975,4.59982,2472.1,2017-11-01T08:17:19Z
2017-11-01T06:17:27Z,42.805,6.029,13.2957,4.59978,2472.137,2017-11-01T08:18:53Z
2017-11-01T06:19:02Z,42.805,6.029,13.2964,4.59979,2472.137,2017-11-01T08:20:28Z
2017-11-01T06:20:37Z,42.805,6.029,13.2969,4.59975,2472.137,2017-11-01T08:22:03Z
2017-11-01T06:22:12Z,42.805,6.029,13.2961,4.59980,2472.137,2017-11-01T08:23:38Z
2017-11-01T06:23:47Z,42.805,6.029,13.2967,4.59976,2472.123,2017-11-01T08:25:13Z
2017-11-01T06:25:21Z,42.805,6.029,13.2955,4.59976,2472.137,2017-11-01T08:26:48Z
2017-11-01T06:26:56Z,42.805,6.029,13.2958,4.59978,2472.115,2017-11-01T08:28:22Z
2017-11-01T06:28:31Z,42.805,6.029,13.2959,4.59984,2472.115,2017-11-01T08:29:57Z
2017-11-01T06:30:06Z,42.805,6.029,13.2975,4.59978,2472.16,2017-11-01T08:31:32Z
2017-11-01T06:31:41Z,42.805,6.029,13.2974,4.59969,2472.115,2017-11-01T08:33:07Z
2017-11-01T06:33:16Z,42.805,6.029,13.2967,4.59972,2472.092,2017-11-01T08:34:42Z
2017-11-01T06:34:50Z,42.805,6.029,13.2962,4.59982,2472.137,2017-11-01T08:36:17Z
2017-11-01T06:36:25Z,42.805,6.029,13.2957,4.59979,2472.123,2017-11-01T08:37:51Z
2017-11-01T06:38:00Z,42.805,6.029,13.2960,4.59978,2472.115,2017-11-01T08:39:26Z
2017-11-01T06:39:35Z,42.805,6.029,13.2960,4.59979,2472.137,2017-11-01T08:41:01Z
2017-11-01T06:41:10Z,42.805,6.029,13.2966,4.59976,2472.115,2017-11-01T08:42:36Z
2017-11-01T06:42:45Z,42.805,6.029,13.2962,4.59974,2472.092,2017-11-01T08:44:11Z
2017-11-01T06:44:19Z,42.805,6.029,13.2961,4.59976,2472.115,2017-11-01T08:45:46Z
2017-11-01T06:45:54Z,42.805,6.029,13.2966,4.59977,2472.115,2017-11-01T08:47:20Z
2017-11-01T06:47:29Z,42.805,6.029,13.2969,4.59978,2472.137,2017-11-01T08:48:55Z
2017-11-01T06:49:04Z,42.805,6.029,13.2964,4.59981,2472.077,2017-11-01T08:50:30Z
2017-11-01T06:50:39Z,42.805,6.029,13.2975,4.59981,2472.1,2017-11-01T08:52:05Z
2017-11-01T06:52:14Z,42.805,6.029,13.2966,4.59980,2472.137,2017-11-01T08:53:40Z
2017-11-01T06:53:48Z,42.805,6.029,13.2960,4.59985,2472.115,2017-11-01T08:55:15Z
2017-11-01T06:55:23Z,42.805,6.029,13.2966,4.59978,2472.1,2017-11-01T08:56:49Z
2017-11-01T06:56:58Z,42.805,6.029,13.2966,4.59981,2472.115,2017-11-01T08:58:24Z
2017-11-01T06:58:33Z,42.805,6.029,13.2965,4.59973,2472.115,2017-11-01T08:59:59Z
2017-11-01T07:00:08Z,42.805,6.029,13.2967,4.59981,2472.1,2017-11-01T09:01:34Z
2017-11-01T07:01:43Z,42.805,6.029,13.2967,4.59975,2472.115,2017-11-01T09:03:09Z
2017-11-01T07:03:17Z,42.805,6.029,13.2962,4.59981,2472.115,2017-11-01T09:04:44Z
2017-11-01T07:04:52Z,42.805,6.029,13.2968,4.59975,2472.1,2017-11-01T09:06:18Z
2017-11-01T07:06:27Z,42.805,6.029,13.2973,4.59977,2472.1,2017-11-01T09:07:53Z
2017-11-01T07:08:02Z,42.805,6.029,13.2962,4.59984,2472.077,2017-11-01T09:09:28Z
2017-11-01T07:09:37Z,42.805,6.029,13.2967,4.59975,2472.137,2017-11-01T09:11:03Z
2017-11-01T07:11:12Z,42.805,6.029,13.2968,4.59988,2472.115,2017-11-01T09:12:38Z
2017-11-01T07:12:46Z,42.805,6.029,13.2976,4.59983,2472.1,2017-11-01T09:14:13Z
2017-11-01T07:14:21Z,42.805,6.029,13.2963,4.59980,2472.115,2017-11-01T09:15:47Z
2017-11-01T07:15:56Z,42.805,6.029,13.2964,4.59990,2472.115,2017-11-01T09:17:22Z
2017-11-01T07:17:31Z,42.805,6.029,13.2970,4.59971,2472.077,2017-11-01T09:18:57Z
2017-11-01T07:19:06Z,42.805,6.029,13.2967,4.59975,2472.137,2017-11-01T09:20:32Z
2017-11-01T07:20:41Z,42.805,6.029,13.2978,4.59978,2472.115,2017-11-01T09:22:07Z
2017-11-01T07:22:15Z,42.805,6.029,13.2960,4.59983,2472.115,2017-11-01T09:23:42Z
2017-11-01T07:23:50Z,42.805,6.029,13.2974,4.59970,2472.137,2017-11-01T09:25:16Z
2017-11-01T07:25:25Z,42.805,6.029,13.2961,4.59978,2472.115,2017-11-01T09:26:51Z
2017-11-01T07:27:00Z,42.805,6.029,13.2970,4.59979,2472.1,2017-11-01T09:28:26Z
2017-11-01T07:28:35Z,42.805,6.029,13.2962,4.59978,2472.115,2017-11-01T09:30:01Z
2017-11-01T07:30:10Z,42.805,6.029,13.2970,4.59977,2472.077,2017-11-01T09:31:36Z
2017-11-01T07:31:44Z,42.805,6.029,13.2966,4.59980,2472.115,2017-11-01T09:33:10Z
2017-11-01T07:33:19Z,42.805,6.029,13.2963,4.59983,2472.077,2017-11-01T09:34:45Z
2017-11-01T07:34:54Z,42.805,6.029,13.2964,4.59980,2472.137,2017-11-01T09:36:20Z
2017-11-01T07:36:29Z,42.805,6.029,13.2961,4.59983,2472.077,2017-11-01T09:37:55Z
2017-11-01T07:38:04Z,42.805,6.029,13.2970,4.59987,2472.137,2017-11-01T09:39:30Z
2017-11-01T07:39:39Z,42.805,6.029,13.2970,4.59978,2472.092,2017-11-01T09:41:05Z
2017-11-01T07:41:13Z,42.805,6.029,13.2976,4.59989,2472.115,2017-11-01T09:42:40Z
2017-11-01T07:42:48Z,42.805,6.029,13.2966,4.59983,2472.077,2017-11-01T09:44:14Z
2017-11-01T07:44:23Z,42.805,6.029,13.2967,4.59983,2472.115,2017-11-01T09:45:49Z
2017-11-01T07:45:58Z,42.805,6.029,13.2973,4.59982,2472.092,2017-11-01T09:47:24Z